Miscellaneous Local Product
Issued by NWS Hastings, NE

Home | Current Version | Previous Version | Text Only | Print | Product List | Glossary On
Versions: 1 2 3 4 5 6 7 8 9 10 11 12 13 14 15 16 17 18 19 20 21 22 23 24 25 26 27 28 29 30 31 32 33 34 35 36 37 38 39 40 41 42 43 44 45 46 47 48 49 50
861
AXUS43 KGID 060402
MISGRI

GID CWA HOURLY WEATHER ROUNDUP
NATIONAL WEATHER SERVICE HASTINGS NE
1000 PM CST MON DEC 05 2016

NOTE: "FAIR" INDICATES FEW OR NO CLOUDS BELOW 12,000 FEET WITH NO
SIGNIFICANT WEATHER AND/OR OBSTRUCTIONS TO VISIBILITY.

...SOUTH CENTRAL NEBRASKA...

CITY           SKY/WX    TMP DP  RH WIND       PRES   REMARKS
GRAND ISLAND   CLOUDY    30  19  63 NW24G31   29.88R WCI  16
HASTINGS       CLOUDY    31  20  63 N29G36    29.87R WCI  16
KEARNEY        CLOUDY    30  16  55 N18       29.89R WCI  18
ORD            CLOUDY    28  15  58 NW15      29.89R WCI  16
YORK           CLOUDY    32  25  74 N20G26    29.82R WCI  20
AURORA         CLOUDY    31  21  65 N28G38    29.86R WCI  17
LEXINGTON      CLOUDY    29  16  58 NW22G28   29.94R WCI  15
HOLDREGE       CLOUDY    31  19  62 NW16      29.91R WCI  19
HEBRON         CLOUDY    36  28  72 N17G31    29.83R WCI  26

...NEBRASKA PANHANDLE...

CITY           SKY/WX    TMP DP  RH WIND       PRES   REMARKS
CHADRON        MOCLDY    19   9  65 W10       29.95R WCI   7
ALLIANCE       CLEAR     14   6  70 W16       29.89R WCI  -2
SCOTTSBLUFF    CLEAR     19   9  65 W13       29.94R WCI   6
SIDNEY         CLOUDY    19   8  62 N9        29.91R WCI   8

...WESTERN AND NORTH CENTRAL NEBRASKA...

CITY           SKY/WX    TMP DP  RH WIND       PRES   REMARKS
VALENTINE      CLEAR     20  10  65 NW16      29.90R WCI   6
AINSWORTH      CLEAR     23  13  66 NW13      29.88R WCI  11
ONEILL         PTCLDY    26  17  68 NW15G21   29.88R WCI  14
BROKEN BOW     CLOUDY    26  15  63 NW20G30   29.89R WCI  12
IMPERIAL       CLOUDY    27  14  58 N12       29.94R WCI  17
NORTH PLATTE   CLOUDY    26  14  60 NW8       29.94R WCI  18
MCCOOK         CLOUDY    30  15  53 N21       29.92R WCI  17

...EASTERN NEBRASKA...

CITY           SKY/WX    TMP DP  RH WIND       PRES   REMARKS
NORFOLK        CLOUDY    29  19  66 NW23G32   29.85R WCI  15
SO SIOUX CITY  CLOUDY    34  25  69 NW20G29   29.82R WCI  23
TEKAMAH        CLOUDY    35  27  72 NW21G30   29.83R WCI  24
COLUMBUS       MOCLDY    32  21  64 NW21G30   29.85R WCI  20
ALBION         CLOUDY    29  19  66 NW21      29.86S WCI  16
OMAHA EPPLEY   LGT RAIN  37  32  82 N18G25    29.80R WCI  27
OFFUTT AFB     RAIN      38  38  99 NW15      29.79R WCI  30
MILLARD        LGT RAIN  37  33  83 NW16      29.81R WCI  28
LINCOLN        CLOUDY    36  28  73 N22       29.82R WCI  25
NEBRASKA CITY  CLOUDY    40  34  79 W13       29.75R WCI  33
BEATRICE       CLOUDY    39  32  77 N23G31    29.79R WCI  28
FALLS CITY     CLOUDY    37  34  89 SE5       29.74R WCI  33

...NORTHERN KANSAS...

CITY           SKY/WX    TMP DP  RH WIND       PRES   REMARKS
GOODLAND       MOCLDY    27  13  55 N16G26    29.90R WCI  15
HILL CITY      CLOUDY    35  22  58 N22G30    29.89R WCI  23
NORTON         CLOUDY    34  18  51 N15       29.89R WCI  24
PHILLIPSBURG   CLOUDY    36  21  55 NW23G33   29.89R WCI  24
SMITH CENTER   CLOUDY    34  25  69 NW29G38   29.85R WCI  20
BELOIT         CLOUDY    39  30  70 N35G40    29.79R WCI  27
HAYS           MOCLDY    40  29  64 N35G41    29.79R WCI  28
RUSSELL        CLEAR     40  32  73 N21G36    29.79R WCI  30
CONCORDIA      MOCLDY    39  33  79 N17G32    29.80R WCI  30
SALINA         CLEAR     35  31  85 N3        29.74R
TOPEKA         CLEAR     33  30  88 E3        29.76R



USA.gov is the U.S. government's official web portal to all federal, state and local government web resources and services.